Regional Weather Roundup
Issued by NWS Columbia, SC

Home | Current Version | Previous Version | Text Only | Print | Product List | Glossary On
Versions: 1 2 3 4 5 6 7 8 9 10 11 12 13 14 15 16 17 18 19 20 21 22 23 24 25 26 27 28
000
ASUS42 KCAE 091810
RWRCAE
REGIONAL WEATHER ROUNDUP
NATIONAL WEATHER SERVICE COLUMBIA SC
100 PM EST FRI DEC 09 2016

NOTE: "FAIR" INDICATES FEW OR NO CLOUDS BELOW 12,000 FEET WITH NO
SIGNIFICANT WEATHER AND/OR OBSTRUCTIONS TO VISIBILITY.

NOT ALL STATIONS ARE QUALITY CONTROLLED BY THE NATIONAL
WEATHER SERVICE. USE DATA WITH CAUTION...ESPECIALLY
DEWPOINT OBSERVATIONS.

SCZ001>056-GAZ040-063>065-077-091900-
...UPSTATE SOUTH CAROLINA...

CITY           SKY/WX    TMP DP  RH WIND       PRES   REMARKS
ANDERSON       SUNNY     44  16  32 VRB3      30.39F
6HR MIN TEMP:  27; 6HR MAX TEMP:  44;

LIBERTY        CLEAR     44  14  30 N6        30.37F
6HR MIN TEMP:  19; 6HR MAX TEMP:  43;

SPARTANBURG    SUNNY     39  14  35 NE3       30.39F
CLEMSON        SUNNY     44  16  32 S6        30.39F
6HR MIN TEMP:  29; 6HR MAX TEMP:  45;

GREENVILLE     SUNNY     43  14  31 NW3       30.39F
6HR MIN TEMP:  30; 6HR MAX TEMP:  44;

GREENWOOD      SUNNY     43  13  29 VRB3      30.41F
6HR MIN TEMP:  24; 6HR MAX TEMP:  44;

GREER          SUNNY     42  12  29 N13       30.38F
6HR MIN TEMP:  27; 6HR MAX TEMP:  42;

ROCK HILL      SUNNY     42  15  33 N12       30.40F
6HR MIN TEMP:  30; 6HR MAX TEMP:  42;

CHESTER        CLEAR     41  14  33 N5        30.40F
LAURENS          N/A     43  16  33 N6        30.39F


...CENTRAL SOUTH CAROLINA...

CITY           SKY/WX    TMP DP  RH WIND       PRES   REMARKS
COLUMBIA APT   SUNNY     46  18  32 NW8       30.39F
6HR MIN TEMP:  34; 6HR MAX TEMP:  47;

COLUMBIA OWENS SUNNY     46  17  31 VRB5      30.41F
6HR MIN TEMP:  34; 6HR MAX TEMP:  46;

MCENTIRE ANGB  SUNNY     46  17  31 NW8       30.39F
6HR MIN TEMP:  27; 6HR MAX TEMP:  46;

ORANGEBURG     SUNNY     45  17  32 NW7       30.39F
6HR MIN TEMP:  34; 6HR MAX TEMP:  46;

SUMTER SHAW    SUNNY     46  16  29 NW10      30.37F
6HR MIN TEMP:  31; 6HR MAX TEMP:  46;

NEWBERRY       CLEAR     41  18  38 NW6       30.42F
MANNING        FAIR      43  18  36 N6        30.40F
LANCASTER      CLEAR     41  14  33 N6        30.40F
WINNSBORO      CLEAR     43  19  39 N3        30.39F


...EASTERN AND COASTAL SOUTH CAROLINA...

CITY           SKY/WX    TMP DP  RH WIND       PRES   REMARKS
MYRTLE BEACH   SUNNY     45  19  36 N12       30.40S
N MYRTLE BCH   SUNNY     45  21  38 VRB7      30.36F
6HR MIN TEMP:  33; 6HR MAX TEMP:  46;

CONWAY         FAIR      43  23  45 N8        30.38F
MARION         FAIR      43  21  42 N7        30.40F
HARTSVILLE     FAIR      43  18  36 NW5       30.39F
FLORENCE       SUNNY     43  18  36 N9        30.40F
6HR MIN TEMP:  31; 6HR MAX TEMP:  45;

DARLINGTON     SUNNY     43  20  39 NW8       30.40F
6HR MIN TEMP:  29; 6HR MAX TEMP:  43;

CHARLESTON APT SUNNY     49  20  31 N13       30.38F
6HR MIN TEMP:  35; 6HR MAX TEMP:  50;

WALTERBORO     CLEAR     50  19  29 NE7       30.40F
BEAUFORT       SUNNY     52  19  27 N14       30.39F
6HR MIN TEMP:  39; 6HR MAX TEMP:  52;

HILTON HEAD    SUNNY     54  23  30 N12       30.39F


...EASTERN GEORGIA...

CITY           SKY/WX    TMP DP  RH WIND       PRES   REMARKS
AUGUSTA BUSH F SUNNY     49  14  24 MISG      30.40F
6HR MIN TEMP:  28; 6HR MAX TEMP:  49;

AUGUSTA DANIEL SUNNY     47  15  27 NE6       30.40F
6HR MIN TEMP:  33; 6HR MAX TEMP:  47;

THOMSON        SUNNY     46  22  38 CALM      30.45F
6HR MIN TEMP:  29; 6HR MAX TEMP:  46;

CLAXTON        FAIR      50  23  35 CALM      30.39F
6HR MIN TEMP:  36; 6HR MAX TEMP:  50;

SYLVANIA       CLEAR    N/A N/A N/A NE5       30.40F
STATESBORO     SUNNY     49  23  35 NW7       30.40F
6HR MIN TEMP:  35; 6HR MAX TEMP:  50;

SAVANNAH       SUNNY     52  20  28 NW9       30.39F
6HR MIN TEMP:  38; 6HR MAX TEMP:  52;



...SOUTHERN NORTH CAROLINA...

CITY           SKY/WX    TMP DP  RH WIND       PRES   REMARKS
CHARLOTTE      SUNNY     41  15  35 NW6       30.40F
6HR MIN TEMP:  28; 6HR MAX TEMP:  42;

MONROE         SUNNY     42  15  33 NW9       30.38F
6HR MIN TEMP:  29; 6HR MAX TEMP:  42;

WADESBORO      CLEAR     41  15  34 NW7G16    30.39F
ROCKINGHAM     CLEAR     41  18  39 NW10G16   30.39F
RUTHERFORDTON  SUNNY     39  13  35 E5        30.39F
ASHEVILLE      SUNNY     30  12  47 N14       30.36F WCI  19
6HR MIN TEMP:  22; 6HR MAX TEMP:  31;


$$




USA.gov is the U.S. government's official web portal to all federal, state and local government web resources and services.